| time (UTC) | temp F | wind direction | speed MPH | gust MPH | rain 1hr in | rain 24hr in | rain mn in | humidity % | barometer mb |
| 20260506204549 | 59 | 182 | 1.0 | 10.0 | 0.04 | 0.11 | 0.11 | 92 | 1005.9 |
| 20260506203042 | 59 | 0 | 1.0 | 6.0 | 0.02 | 0.09 | 0.09 | 92 | 1006.2 |
| 20260506201542 | 59 | 188 | 1.0 | 5.0 | 0.02 | 0.08 | 0.08 | 91 | 1006.4 |
| 20260506200041 | 59 | 0 | 1.0 | 5.0 | 0.01 | 0.07 | 0.07 | 91 | 1006.2 |
| 20260506194546 | 59 | 360 | 3.0 | 9.0 | 0.02 | 0.07 | 0.07 | 91 | 1006.4 |
| 20260506193044 | 59 | 360 | 0.0 | 6.0 | 0.02 | 0.07 | 0.07 | 91 | 1006.6 |
| 20260506191542 | 59 | 360 | 1.0 | 8.0 | 0.02 | 0.06 | 0.06 | 91 | 1006.8 |
| 20260506190041 | 59 | 360 | 2.0 | 12.0 | 0.04 | 0.06 | 0.06 | 91 | 1006.7 |
| 20260506184546 | 59 | 360 | 3.0 | 12.0 | 0.04 | 0.05 | 0.05 | 90 | 1006.9 |
| 20260506183045 | 59 | 360 | 3.0 | 9.0 | 0.04 | 0.05 | 0.05 | 90 | 1007.3 |
| 20260506181541 | 59 | 360 | 4.0 | 12.0 | 0.03 | 0.04 | 0.04 | 89 | 1007.4 |
| 20260506180050 | 59 | 360 | 3.0 | 9.0 | 0.02 | 0.02 | 0.02 | 89 | 1007.2 |
| 20260506174544 | 59 | 360 | 3.0 | 11.0 | 0.01 | 0.01 | 0.01 | 87 | 1007.4 |
| 20260506173051 | 60 | 360 | 3.0 | 11.0 | 0.01 | 0.01 | 0.01 | 86 | 1007.6 |
| 20260506171547 | 61 | 360 | 2.0 | 14.0 | 0.01 | 0.01 | 0.01 | 84 | 1008.2 |
| 20260506170056 | 62 | 360 | 2.0 | 10.0 | 0.00 | 0.00 | 0.00 | 82 | 1008.5 |
| 20260506164541 | 63 | 168 | 1.0 | 8.0 | 0.00 | 0.00 | 0.00 | 80 | 1008.6 |
| 20260506163101 | 64 | 219 | 3.0 | 13.0 | 0.00 | 0.00 | 0.00 | 77 | 1008.5 |
| 20260506161545 | 65 | 140 | 3.0 | 11.0 | 0.00 | 0.00 | 0.00 | 75 | 1008.2 |
| 20260506160045 | 66 | 278 | 5.0 | 10.0 | 0.00 | 0.00 | 0.00 | 71 | 1008.4 |
| 20260506154605 | 66 | 169 | 2.0 | 12.0 | 0.00 | 0.00 | 0.00 | 72 | 1008.7 |
| 20260506153050 | 67 | 177 | 3.0 | 12.0 | 0.00 | 0.00 | 0.00 | 71 | 1008.8 |
| 20260506151548 | 67 | 232 | 3.0 | 9.0 | 0.00 | 0.00 | 0.00 | 70 | 1008.6 |
| 20260506150045 | 66 | 182 | 1.0 | 11.0 | 0.00 | 0.00 | 0.00 | 71 | 1008.6 |
| 20260506144542 | 66 | 170 | 4.0 | 15.0 | 0.00 | 0.00 | 0.00 | 71 | 1008.6 |
| 20260506143056 | 66 | 0 | 2.0 | 9.0 | 0.00 | 0.00 | 0.00 | 72 | 1009.0 |
| 20260506141543 | 65 | 134 | 2.0 | 11.0 | 0.00 | 0.00 | 0.00 | 74 | 1008.8 |
| 20260506140041 | 64 | 181 | 3.0 | 10.0 | 0.00 | 0.00 | 0.00 | 76 | 1008.9 |
| 20260506134545 | 64 | 234 | 3.0 | 9.0 | 0.00 | 0.00 | 0.00 | 76 | 1008.8 |
| 20260506133043 | 64 | 209 | 2.0 | 11.0 | 0.00 | 0.00 | 0.00 | 77 | 1008.7 |
| 20260506131542 | 63 | 283 | 4.0 | 10.0 | 0.00 | 0.00 | 0.00 | 79 | 1009.0 |
| 20260506130040 | 62 | 104 | 3.0 | 9.0 | 0.00 | 0.00 | 0.00 | 80 | 1009.0 |
| 20260506124540 | 61 | 140 | 4.0 | 10.0 | 0.00 | 0.00 | 0.00 | 81 | 1009.2 |
| 20260506123048 | 61 | 219 | 1.0 | 11.0 | 0.00 | 0.00 | 0.00 | 82 | 1009.6 |
| 20260506121545 | 61 | 144 | 3.0 | 11.0 | 0.00 | 0.00 | 0.00 | 82 | 1009.4 |
| 20260506120052 | 60 | 214 | 3.0 | 9.0 | 0.00 | 0.00 | 0.00 | 82 | 1009.3 |
| 20260506114547 | 60 | 151 | 2.0 | 7.0 | 0.00 | 0.00 | 0.00 | 83 | 1009.4 |
| 20260506113040 | 59 | 265 | 4.0 | 10.0 | 0.00 | 0.00 | 0.00 | 84 | 1009.5 |
| 20260506111549 | 58 | 163 | 3.0 | 7.0 | 0.00 | 0.00 | 0.00 | 85 | 1009.3 |
| 20260506110058 | 58 | 199 | 1.0 | 6.0 | 0.00 | 0.00 | 0.00 | 86 | 1009.6 |
| 20260506104543 | 57 | 360 | 2.0 | 9.0 | 0.00 | 0.00 | 0.00 | 87 | 1009.4 |
| 20260506103048 | 57 | 234 | 3.0 | 7.0 | 0.00 | 0.00 | 0.00 | 87 | 1009.5 |
| 20260506101546 | 57 | 138 | 1.0 | 9.0 | 0.00 | 0.00 | 0.00 | 87 | 1009.4 |
| 20260506100048 | 57 | 191 | 1.0 | 7.0 | 0.00 | 0.00 | 0.00 | 87 | 1009.4 |
| 20260506094604 | 57 | 253 | 2.0 | 8.0 | 0.00 | 0.00 | 0.00 | 86 | 1009.2 |
| 20260506093053 | 57 | 205 | 3.0 | 11.0 | 0.00 | 0.00 | 0.00 | 86 | 1009.3 |
| 20260506091546 | 57 | 187 | 2.0 | 12.0 | 0.00 | 0.00 | 0.00 | 86 | 1009.2 |
| 20260506090046 | 57 | 214 | 0.0 | 9.0 | 0.00 | 0.00 | 0.00 | 85 | 1009.3 |
| 20260506084541 | 57 | 229 | 1.0 | 8.0 | 0.00 | 0.00 | 0.00 | 85 | 1009.4 |
| 20260506083041 | 57 | 175 | 2.0 | 7.0 | 0.00 | 0.00 | 0.00 | 84 | 1009.5 |
| 20260506081547 | 58 | 142 | 2.0 | 10.0 | 0.00 | 0.00 | 0.00 | 84 | 1009.4 |
| 20260506073045 | 58 | 180 | 1.0 | 8.0 | 0.00 | 0.00 | 0.00 | 82 | 1009.3 |
| 20260506071540 | 58 | 211 | 2.0 | 9.0 | 0.00 | 0.00 | 0.00 | 81 | 1009.4 |
| 20260506061541 | 60 | 208 | 3.0 | 10.0 | 0.00 | 0.00 | 0.00 | 78 | 1009.0 |
| 20260506044545 | 63 | 232 | 2.0 | 13.0 | 0.00 | 0.00 | 0.00 | 70 | 1009.6 |
| 20260506043046 | 63 | 216 | 3.0 | 9.0 | 0.00 | 0.00 | 0.00 | 69 | 1009.6 |
| 20260506041541 | 63 | 219 | 2.0 | 9.0 | 0.00 | 0.00 | 0.00 | 68 | 1009.7 |
| 20260506040058 | 63 | 207 | 2.0 | 9.0 | 0.00 | 0.00 | 0.00 | 68 | 1009.7 |
| 20260506034543 | 64 | 174 | 2.0 | 9.0 | 0.00 | 0.00 | 0.00 | 67 | 1009.7 |
| 20260506033042 | 64 | 233 | 2.0 | 12.0 | 0.00 | 0.00 | 0.00 | 66 | 1009.7 |
| 20260506031555 | 64 | 223 | 2.0 | 11.0 | 0.00 | 0.00 | 0.00 | 66 | 1009.7 |
| 20260506030043 | 64 | 239 | 3.0 | 10.0 | 0.00 | 0.00 | 0.00 | 66 | 1009.6 |
| 20260506024540 | 64 | 188 | 2.0 | 7.0 | 0.00 | 0.00 | 0.00 | 66 | 1009.6 |
| 20260506023041 | 64 | 183 | 2.0 | 10.0 | 0.00 | 0.00 | 0.00 | 65 | 1009.6 |
| 20260506021542 | 64 | 217 | 3.0 | 9.0 | 0.00 | 0.00 | 0.00 | 65 | 1009.6 |
| 20260506020041 | 64 | 360 | 1.0 | 6.0 | 0.00 | 0.00 | 0.00 | 65 | 1009.6 |
| 20260506014541 | 64 | 360 | 3.0 | 9.0 | 0.00 | 0.00 | 0.00 | 65 | 1009.6 |
| 20260506013044 | 64 | 360 | 2.0 | 10.0 | 0.00 | 0.00 | 0.00 | 64 | 1009.3 |
| 20260506011544 | 65 | 229 | 2.0 | 8.0 | 0.00 | 0.00 | 0.00 | 62 | 1009.1 |
| 20260506010046 | 65 | 208 | 3.0 | 8.0 | 0.00 | 0.00 | 0.00 | 61 | 1008.9 |
| 20260506004541 | 66 | 189 | 3.0 | 10.0 | 0.00 | 0.00 | 0.00 | 60 | 1008.9 |
| 20260506003042 | 66 | 209 | 1.0 | 10.0 | 0.00 | 0.00 | 0.00 | 60 | 1008.5 |
| 20260506001537 | 66 | 171 | 3.0 | 11.0 | 0.00 | 0.00 | 0.00 | 60 | 1008.0 |
| 20260506000046 | 67 | 207 | 5.0 | 13.0 | 0.00 | 0.00 | 0.00 | 60 | 1007.9 |
| 20260505234553 | 67 | 228 | 2.0 | 7.0 | 0.00 | 0.00 | 0.00 | 59 | 1007.8 |
| 20260505233042 | 68 | 165 | 2.0 | 12.0 | 0.00 | 0.00 | 0.00 | 59 | 1007.7 |
| 20260505231552 | 69 | 230 | 3.0 | 11.0 | 0.00 | 0.00 | 0.00 | 59 | 1007.3 |
| 20260505230048 | 69 | 222 | 4.0 | 10.0 | 0.00 | 0.00 | 0.00 | 58 | 1007.2 |
| 20260505224543 | 69 | 204 | 3.0 | 18.0 | 0.00 | 0.00 | 0.00 | 57 | 1007.0 |
| 20260505223054 | 70 | 257 | 4.0 | 18.0 | 0.00 | 0.00 | 0.00 | 56 | 1006.8 |
| 20260505221541 | 71 | 227 | 3.0 | 13.0 | 0.00 | 0.00 | 0.00 | 55 | 1006.9 |
| 20260505220047 | 72 | 154 | 5.0 | 15.0 | 0.00 | 0.00 | 0.00 | 53 | 1007.0 |
| 20260505214550 | 72 | 244 | 3.0 | 15.0 | 0.00 | 0.00 | 0.00 | 53 | 1006.9 |
| 20260505213043 | 73 | 240 | 4.0 | 14.0 | 0.00 | 0.00 | 0.00 | 52 | 1006.8 |
| 20260505211551 | 73 | 278 | 5.0 | 15.0 | 0.00 | 0.00 | 0.00 | 51 | 1006.7 |
| 20260505210042 | 74 | 263 | 3.0 | 12.0 | 0.00 | 0.00 | 0.00 | 51 | 1006.9 |